Regional Weather Roundup
Issued by NWS

Home | Current Version | Previous Version | Graphics & Text | Print | Product List | Glossary On
Versions: 1 2 3 4 5 6 7 8 9 10 11 12 13 14 15 16 17 18 19 20 21 22 23 24 25 26 27 28 29 30 31 32 33 34 35 36 37 38 39 40 41 42 43 44 45 46 47 48 49 50
346
ASUS43 KDTX 250610
RWRMI
MICHIGAN HOURLY REGIONAL WEATHER ROUNDUP
NATIONAL WEATHER SERVICE DETROIT/PONTIAC MI
200 AM EDT SAT MAR 25 2017

NOTE: "FAIR" INDICATES FEW OR NO CLOUDS BELOW 12,000 FEET WITH NO
SIGNIFICANT WEATHER AND/OR OBSTRUCTION TO VISIBILITY.

MIZ047>049-052>055-059>063-066>070-074>076-081>083-250700-
SOUTHEAST LOWER MICHIGAN

CITY           SKY/WX    TMP DP  RH WIND       PRES   REMARKS
ADRIAN         CLOUDY    53  47  79 E9        30.06R
6HR MIN TEMP:  53; 6HR MAX TEMP:  68;

ALMA           CLOUDY    37  36  95 NE9       30.14R WCI  30
ANN ARBOR      CLOUDY    45  40  82 NE10      30.08R
BAD AXE        CLOUDY    35  33  93 NE9       30.15S WCI  28
6HR MIN TEMP:  35; 6HR MAX TEMP:  37;

CARO           CLOUDY    38  35  89 NE3       30.14R
DETROIT CITY   CLOUDY    44  39  82 N9        30.10R
6HR MIN TEMP:  44; 6HR MAX TEMP:  72;

DETROIT        CLOUDY    46  39  76 N10       30.10R
6HR MIN TEMP:  46; 6HR MAX TEMP:  72;

FLINT          LGT RAIN  40  35  83 NE7       30.14R
6HR MIN TEMP:  40; 6HR MAX TEMP:  62; 6HR PCP: TRACE;

GROSSE ILE     CLOUDY    46  38  75 NE8       30.07S
6HR MIN TEMP:  46; 6HR MAX TEMP:  69;

HILLSDALE      CLOUDY    52  45  76 N7G24     30.05R
HOWELL         RAIN      42  39  89 N5        30.10R
6HR MIN TEMP:  42; 6HR MAX TEMP:  65; 6HR PCP:  0.12;


CITY           SKY/WX    TMP DP  RH WIND       PRES   REMARKS
JACKSON        LGT RAIN  46  43  89 NE9       30.07S
6HR MIN TEMP:  46; 6HR MAX TEMP:  71; 6HR PCP:  0.06;

LAMBERTVILLE   CLOUDY    49  42  75 SE6       30.07R
6HR MIN TEMP:  49; 6HR MAX TEMP:  73;

LANSING        CLOUDY    40  37  89 NE12      30.09F WCI  33
6HR MIN TEMP:  41; 6HR MAX TEMP:  64; 6HR PCP:  0.11;

LAPEER         CLOUDY    39  36  87 NE6       30.11S
6HR MIN TEMP:  39; 6HR MAX TEMP:  48;

MASON          RAIN      43  41  95 E8        30.07F
MONROE         CLOUDY    47  41  80 NE5       30.07S
6HR MIN TEMP:  47; 6HR MAX TEMP:  70;

MT. CLEMENS    MIX PCPN  41  41 100 N9        30.09R
6HR MIN TEMP:  42; 6HR MAX TEMP:  51; 6HR PCP:  0.10;

PONTIAC        HVY RAIN  41  50 100 NE8       30.08S
6HR MIN TEMP:  41; 6HR MAX TEMP:  63; 6HR PCP:  0.27;

PORT HOPE        N/A     34  33  96 NE12      30.15R WCI  25
6HR MIN TEMP:  34; 6HR MAX TEMP:  35; 6HR PCP:  0.01;

PORT HURON     LGT RAIN  39  36  87 N7        30.12R WCI  34
TRI CITIES     CLOUDY    36  36 100 NE15      30.15R WCI  27
6HR MIN TEMP:  36; 6HR MAX TEMP:  40;

MIDLAND        CLOUDY    38  34  84 NE9       30.15R WCI  32
6HR MIN TEMP:  38; 6HR MAX TEMP:  42;

TROY           CLOUDY    43  38  82 NE7       30.11S
SAGINAW HB     CLOUDY    36  34  93 N12       30.15R FOG     WCI  27
$$
MIZ043>046-050>051-056>058-064>065-071>073-077>080-250700-
SOUTHWEST LOWER MICHIGAN

CITY           SKY/WX    TMP DP  RH WIND       PRES   REMARKS
BATTLE CREEK   CLOUDY    46  45  96 N8        30.06R FOG
6HR MIN TEMP:  46; 6HR MAX TEMP:  70; 6HR PCP:  0.48;

BENTON HARBOR  CLOUDY    41  39  93 CALM      30.04S FOG
6HR MIN TEMP:  40; 6HR MAX TEMP:  51; 6HR PCP:  0.43;

BIG RAPIDS     CLOUDY    39  35  84 E9        30.12R WCI  33
6HR MIN TEMP:  39; 6HR MAX TEMP:  44;

COLDWATER      CLOUDY    51  44  77 E5        30.04F
6HR MIN TEMP:  51; 6HR MAX TEMP:  69;

FREMONT        DRIZZLE   43  38  84 E6        30.11R
HOLLAND        CLOUDY    45  38  76 E12       30.07R
6HR MIN TEMP:  46; 6HR MAX TEMP:  57; 6HR PCP: TRACE;

GRAND RAPIDS   CLOUDY    42  35  76 NE15      30.09R
6HR MIN TEMP:  42; 6HR MAX TEMP:  62;

IONIA          CLOUDY    39  35  83 NE10      30.09R WCI  33
6HR MIN TEMP:  39; 6HR MAX TEMP:  60;

KALAMAZOO      CLOUDY    49  46  90 N9        30.05R FOG
6HR MIN TEMP:  49; 6HR MAX TEMP:  72; 6HR PCP:  0.64;

LUDINGTON      LGT RAIN  36  36 100 N7        30.14R WCI  30
6HR MIN TEMP:  36; 6HR MAX TEMP:  38; 6HR PCP:  0.10;

MARSHALL       LGT RAIN  45  44  98 E6        30.06S
6HR MIN TEMP:  45; 6HR MAX TEMP:  72; 6HR PCP:  0.07;

MOUNT PLEASANT CLOUDY    38  33  82 NE10      30.14R WCI  31
6HR MIN TEMP:  38; 6HR MAX TEMP:  47;

MUSKEGON       CLOUDY    47  40  76 E10       30.09R
6HR MIN TEMP:  47; 6HR MAX TEMP:  56;

SOUTH HAVEN    CLOUDY    43  43  97 E5        30.04S FOG
$$
MIZ016>042-250700-
NORTHERN LOWER MICHIGAN

CITY           SKY/WX    TMP DP  RH WIND       PRES   REMARKS
ALPENA         MIX PCPN  35  34  96 NE6       30.21R WCI  30
6HR MIN TEMP:  34; 6HR MAX TEMP:  35; 6HR PCP:  0.07;

BEAVER ISLAND  CLOUDY    34  33  94 NE6       30.21R WCI  29
6HR MIN TEMP:  34; 6HR MAX TEMP:  35;

BELLAIRE       MIX PCPN  34  33  94 CALM      30.18F
6HR MIN TEMP:  34; 6HR MAX TEMP:  35;

CADILLAC       DRIZZLE   34  33  95 NE6       30.13R WCI  29
CHARLEVOIX     CLOUDY    34  34 100 E5        30.22S WCI  30
6HR MIN TEMP:  33; 6HR MAX TEMP:  34;

FRANKFORT      DRIZZLE   35  32  88 E5        30.17F WCI  31
GAYLORD        LGT RAIN  35  32  88 E8        30.16R WCI  29
6HR MIN TEMP:  34; 6HR MAX TEMP:  35; 6HR PCP:  0.08;

GRAYLING       RAIN      34  32  93 NE7       30.16F WCI  28
HARBOR SPRINGS CLOUDY    35  33  94 E10       30.19S WCI  27
HOUGHTON LAKE  LGT RAIN  34  32  92 E8        30.15S WCI  27
6HR MIN TEMP:  34; 6HR MAX TEMP:  37; 6HR PCP:  0.48;

MANISTEE       LGT RAIN  36  34  93 NE5       30.16R WCI  32
OSCODA         MIX PCPN  35  34  95 NE9       30.18F WCI  28
6HR MIN TEMP:  35; 6HR MAX TEMP:  36; 6HR PCP:  0.41;

PELLSTON       CLOUDY    35  31  85 NE7       30.20S WCI  29
6HR MIN TEMP:  34; 6HR MAX TEMP:  35;

ROGERS CITY    CLOUDY    34  33  94 E6          N/A  WCI  29
TRAVERSE CITY  MIX PCPN  36  34  92 NE6       30.17S WCI  31
6HR MIN TEMP:  35; 6HR MAX TEMP:  36; 6HR PCP:  0.15;

$$
MIZ007>008-015-250700-
EASTERN UPPER MICHIGAN

CITY           SKY/WX    TMP DP  RH WIND       PRES   REMARKS
KINROSS        CLOUDY    33  31  92 NE6       30.23R WCI  28
6HR MIN TEMP:  33; 6HR MAX TEMP:  34;

MACKINAC ISLAN CLOUDY    33  33 100 NE9       30.21S WCI  25
6HR MIN TEMP:  32; 6HR MAX TEMP:  33;

NEWBERRY       CLOUDY    32  31  98 NE5       30.22R WCI  27
6HR MIN TEMP:  32; 6HR MAX TEMP:  33;

S. S. MARIE    CLOUDY    36  29  75 NE5       30.23S WCI  32
6HR MIN TEMP:  36; 6HR MAX TEMP:  38;

MUNISING         N/A     33  31  92 NE12      30.23S WCI  24
6HR MIN TEMP:  33; 6HR MAX TEMP:  34;

$$
MIZ004>006-011>014-085-250700-
CENTRAL UPPER MICHIGAN

CITY           SKY/WX    TMP DP  RH WIND       PRES   REMARKS
MANISTIQUE     CLOUDY    34  32  93 NE5       30.20F WCI  30
ESCANABA       CLOUDY    34  32  92 N6        30.22S WCI  29
6HR MIN TEMP:  34; 6HR MAX TEMP:  36;

MENOMINEE        N/A    N/A N/A N/A MISG        N/A
SAWYER-GWINN   CLOUDY    32  30  93 NE9       30.23R WCI  24
6HR MIN TEMP:  32; 6HR MAX TEMP:  33;

$$
MIZ001>003-009>011-084-250700-
WESTERN UPPER MICHIGAN

CITY           SKY/WX    TMP DP  RH WIND       PRES   REMARKS
IRON MOUNTAIN  CLOUDY    34  30  85 NE8       30.20R WCI  27
6HR MIN TEMP:  34; 6HR MAX TEMP:  36;

HOUGHTON       CLOUDY    33  24  69 E10       30.24S WCI  25
6HR MIN TEMP:  33; 6HR MAX TEMP:  35;

COPPER HARBOR    N/A     33  25  72 E9G18     30.28S WCI  25
6HR MIN TEMP:  33; 6HR MAX TEMP:  35;

IRONWOOD       LGT RAIN  33  31  92 NE6       30.24R FOG     WCI  28
6HR MIN TEMP:  33; 6HR MAX TEMP:  35; 6HR PCP: TRACE;

$$

ABBREVIATIONS USED IN REMARKS
   TC - TEMPERATURE IN CELSIUS
  WCI - WIND CHILL INDEX
   HX - HEAT INDEX
  VSB - VISIBILITY





USA.gov is the U.S. government's official web portal to all federal, state and local government web resources and services.